| time (UTC) | temp C | wind direction | speed KPH | gust KPH | rain 1hr cm | rain 24hr cm | rain mn cm | humidity % | barometer mb |
| 20260902204508 | 34 | 242 | 1.6 | 6.4 | 0.00 | 0.00 | 0.00 | 58 | 1017.1 |
| 20260902204003 | 35 | 315 | 1.6 | 8.0 | 0.00 | 0.00 | 0.00 | 57 | 1017.1 |
| 20260902203506 | 35 | 355 | 1.6 | 8.0 | 0.00 | 0.00 | 0.00 | 56 | 1017.1 |
| 20260902203008 | 35 | 296 | 1.6 | 8.0 | 0.00 | 0.00 | 0.00 | 56 | 1017.1 |
| 20260902202506 | 35 | 46 | 1.6 | 9.7 | 0.00 | 0.00 | 0.00 | 56 | 1017.1 |
| 20260902202006 | 35 | 69 | 1.6 | 12.9 | 0.00 | 0.00 | 0.00 | 55 | 1017.2 |
| 20260902201509 | 35 | 128 | 4.8 | 12.9 | 0.00 | 0.00 | 0.00 | 55 | 1017.3 |
| 20260902201004 | 35 | 147 | 3.2 | 6.4 | 0.00 | 0.00 | 0.00 | 56 | 1017.3 |
| 20260902200511 | 35 | 343 | 3.2 | 6.4 | 0.00 | 0.00 | 0.00 | 53 | 1017.3 |
| 20260902200011 | 35 | 306 | 0.0 | 6.4 | 0.00 | 0.00 | 0.00 | 54 | 1017.4 |
| 20260902195506 | 35 | 294 | 0.0 | 6.4 | 0.00 | 0.00 | 0.00 | 53 | 1017.4 |
| 20260902195007 | 35 | 204 | 0.0 | 6.4 | 0.00 | 0.00 | 0.00 | 52 | 1017.3 |
| 20260902194526 | 35 | 302 | 0.0 | 6.4 | 0.00 | 0.00 | 0.00 | 54 | 1017.2 |
| 20260902194004 | 35 | 312 | 1.6 | 6.4 | 0.00 | 0.00 | 0.00 | 53 | 1017.2 |
| 20260902193504 | 35 | 345 | 1.6 | 8.0 | 0.00 | 0.00 | 0.00 | 55 | 1017.1 |
| 20260902193010 | 35 | 195 | 3.2 | 8.0 | 0.00 | 0.00 | 0.00 | 55 | 1017.1 |
| 20260902192508 | 35 | 109 | 1.6 | 8.0 | 0.00 | 0.00 | 0.00 | 57 | 1017.2 |
| 20260902192008 | 35 | 288 | 1.6 | 8.0 | 0.00 | 0.00 | 0.00 | 54 | 1017.3 |
| 20260902191512 | 35 | 42 | 3.2 | 8.0 | 0.00 | 0.00 | 0.00 | 53 | 1017.3 |
| 20260902191007 | 35 | 42 | 1.6 | 6.4 | 0.00 | 0.00 | 0.00 | 53 | 1017.3 |
| 20260902190507 | 35 | 107 | 1.6 | 4.8 | 0.00 | 0.00 | 0.00 | 56 | 1017.5 |
| 20260902190010 | 35 | 349 | 0.0 | 8.0 | 0.00 | 0.00 | 0.00 | 56 | 1017.5 |
| 20260902185508 | 35 | 325 | 0.0 | 8.0 | 0.00 | 0.00 | 0.00 | 56 | 1017.6 |
| 20260902185011 | 35 | 286 | 1.6 | 8.0 | 0.00 | 0.00 | 0.00 | 61 | 1017.7 |
| 20260902184509 | 34 | 325 | 1.6 | 4.8 | 0.00 | 0.00 | 0.00 | 58 | 1017.7 |
| 20260902184007 | 34 | 347 | 0.0 | 6.4 | 0.00 | 0.00 | 0.00 | 57 | 1017.7 |
| 20260902183509 | 35 | 269 | 0.0 | 9.7 | 0.00 | 0.00 | 0.00 | 57 | 1017.8 |
| 20260902183012 | 35 | 319 | 0.0 | 9.7 | 0.00 | 0.00 | 0.00 | 57 | 1017.8 |
| 20260902182508 | 35 | 321 | 0.0 | 8.0 | 0.00 | 0.00 | 0.00 | 57 | 1017.8 |
| 20260902182008 | 34 | 337 | 1.6 | 6.4 | 0.00 | 0.00 | 0.00 | 58 | 1017.9 |
| 20260902181514 | 34 | 59 | 0.0 | 6.4 | 0.00 | 0.00 | 0.00 | 58 | 1017.9 |
| 20260902181009 | 34 | 329 | 1.6 | 6.4 | 0.00 | 0.00 | 0.00 | 59 | 1018.0 |
| 20260902180509 | 34 | 5 | 1.6 | 6.4 | 0.00 | 0.00 | 0.00 | 56 | 1018.0 |
| 20260902180014 | 35 | 352 | 1.6 | 9.7 | 0.00 | 0.00 | 0.00 | 56 | 1018.0 |
| 20260902175512 | 35 | 324 | 1.6 | 9.7 | 0.00 | 0.00 | 0.00 | 57 | 1018.0 |
| 20260902175008 | 34 | 304 | 1.6 | 9.7 | 0.00 | 0.00 | 0.00 | 59 | 1018.0 |
| 20260902174515 | 34 | 15 | 1.6 | 8.0 | 0.00 | 0.00 | 0.00 | 57 | 1018.0 |
| 20260902174010 | 35 | 38 | 1.6 | 6.4 | 0.00 | 0.00 | 0.00 | 55 | 1018.0 |
| 20260902173512 | 35 | 219 | 0.0 | 6.4 | 0.00 | 0.00 | 0.00 | 59 | 1018.0 |
| 20260902173023 | 35 | 122 | 1.6 | 4.8 | 0.00 | 0.00 | 0.00 | 58 | 1017.9 |
| 20260902172509 | 34 | 293 | 1.6 | 8.0 | 0.00 | 0.00 | 0.00 | 58 | 1018.0 |
| 20260902172011 | 34 | 324 | 3.2 | 8.0 | 0.00 | 0.00 | 0.00 | 58 | 1018.0 |
| 20260902171518 | 34 | 352 | 4.8 | 8.0 | 0.00 | 0.00 | 0.00 | 56 | 1018.0 |
| 20260902171014 | 33 | 327 | 1.6 | 6.4 | 0.00 | 0.00 | 0.00 | 59 | 1018.0 |
| 20260902170510 | 33 | 132 | 1.6 | 6.4 | 0.00 | 0.00 | 0.00 | 58 | 1018.1 |
| 20260902170019 | 34 | 321 | 1.6 | 6.4 | 0.00 | 0.00 | 0.00 | 60 | 1018.0 |
| 20260902165510 | 34 | 51 | 1.6 | 6.4 | 0.00 | 0.00 | 0.00 | 58 | 1018.0 |
| 20260902165014 | 33 | 15 | 1.6 | 6.4 | 0.00 | 0.00 | 0.00 | 58 | 1018.1 |
| 20260902164518 | 34 | 320 | 1.6 | 6.4 | 0.00 | 0.00 | 0.00 | 58 | 1018.1 |
| 20260902164011 | 33 | 127 | 1.6 | 6.4 | 0.00 | 0.00 | 0.00 | 62 | 1018.1 |
| 20260902163511 | 33 | 350 | 1.6 | 6.4 | 0.00 | 0.00 | 0.00 | 58 | 1018.1 |
| 20260902163018 | 33 | 193 | 0.0 | 8.0 | 0.00 | 0.00 | 0.00 | 66 | 1018.1 |
| 20260902162509 | 33 | 30 | 1.6 | 8.0 | 0.00 | 0.00 | 0.00 | 61 | 1018.1 |
| 20260902162013 | 33 | 115 | 0.0 | 6.4 | 0.00 | 0.00 | 0.00 | 60 | 1018.2 |
| 20260902161520 | 33 | 30 | 3.2 | 6.4 | 0.00 | 0.00 | 0.00 | 58 | 1018.2 |
| 20260902161017 | 33 | 34 | 1.6 | 8.0 | 0.00 | 0.00 | 0.00 | 60 | 1018.2 |
| 20260902160512 | 33 | 158 | 1.6 | 8.0 | 0.00 | 0.00 | 0.00 | 62 | 1018.3 |
| 20260902160022 | 33 | 42 | 0.0 | 8.0 | 0.00 | 0.00 | 0.00 | 61 | 1018.3 |
| 20260902155510 | 33 | 24 | 0.0 | 8.0 | 0.00 | 0.00 | 0.00 | 60 | 1018.3 |
| 20260902155014 | 32 | 349 | 3.2 | 8.0 | 0.00 | 0.00 | 0.00 | 60 | 1018.3 |
| 20260902154515 | 32 | 355 | 0.0 | 4.8 | 0.00 | 0.00 | 0.00 | 62 | 1018.3 |
| 20260902154005 | 33 | 230 | 0.0 | 6.4 | 0.00 | 0.00 | 0.00 | 63 | 1018.4 |
| 20260902153504 | 32 | 27 | 1.6 | 6.4 | 0.00 | 0.00 | 0.00 | 64 | 1018.3 |
| 20260902153016 | 33 | 192 | 0.0 | 4.8 | 0.00 | 0.00 | 0.00 | 65 | 1018.3 |
| 20260902152505 | 32 | 305 | 0.0 | 11.3 | 0.00 | 0.00 | 0.00 | 63 | 1018.4 |
| 20260902152007 | 32 | 329 | 1.6 | 11.3 | 0.00 | 0.00 | 0.00 | 63 | 1018.5 |
| 20260902151526 | 32 | 117 | 1.6 | 8.0 | 0.00 | 0.00 | 0.00 | 69 | 1018.5 |
| 20260902151005 | 32 | 327 | 1.6 | 8.0 | 0.00 | 0.00 | 0.00 | 62 | 1018.6 |
| 20260902150508 | 31 | 331 | 0.0 | 8.0 | 0.00 | 0.00 | 0.00 | 66 | 1018.7 |
| 20260902150022 | 31 | 22 | 1.6 | 4.8 | 0.00 | 0.00 | 0.00 | 63 | 1018.6 |
| 20260902145503 | 31 | 209 | 1.6 | 6.4 | 0.00 | 0.00 | 0.00 | 67 | 1018.6 |
| 20260902145008 | 31 | 315 | 1.6 | 6.4 | 0.00 | 0.00 | 0.00 | 67 | 1018.5 |
| 20260902144523 | 31 | 319 | 1.6 | 4.8 | 0.00 | 0.00 | 0.00 | 67 | 1018.4 |
| 20260902144004 | 31 | 321 | 1.6 | 4.8 | 0.00 | 0.00 | 0.00 | 67 | 1018.4 |
| 20260902143508 | 30 | 318 | 1.6 | 4.8 | 0.00 | 0.00 | 0.00 | 69 | 1018.4 |
| 20260902143026 | 30 | 330 | 1.6 | 6.4 | 0.00 | 0.00 | 0.00 | 68 | 1018.5 |
| 20260902142506 | 30 | 49 | 0.0 | 6.4 | 0.00 | 0.00 | 0.00 | 69 | 1018.4 |
| 20260902142008 | 30 | 355 | 1.6 | 4.8 | 0.00 | 0.00 | 0.00 | 70 | 1018.4 |
| 20260902141532 | 30 | 304 | 0.0 | 4.8 | 0.00 | 0.00 | 0.00 | 71 | 1018.5 |
| 20260902141005 | 30 | 44 | 1.6 | 4.8 | 0.00 | 0.00 | 0.00 | 73 | 1018.4 |
| 20260902140507 | 29 | 342 | 1.6 | 4.8 | 0.00 | 0.00 | 0.00 | 73 | 1018.5 |
| 20260902140024 | 29 | 317 | 0.0 | 4.8 | 0.00 | 0.00 | 0.00 | 74 | 1018.5 |
| 20260902135505 | 28 | 329 | 0.0 | 0.0 | 0.00 | 0.00 | 0.00 | 76 | 1018.5 |
| 20260902135010 | 28 | 54 | 0.0 | 0.0 | 0.00 | 0.00 | 0.00 | 77 | 1018.5 |
| 20260902134535 | 28 | 360 | 0.0 | 0.0 | 0.00 | 0.00 | 0.00 | 78 | 1018.4 |
| 20260902134005 | 28 | 306 | 0.0 | 0.0 | 0.00 | 0.00 | 0.00 | 79 | 1018.5 |
| 20260902133511 | 27 | 316 | 0.0 | 4.8 | 0.00 | 0.00 | 0.00 | 80 | 1018.4 |
| 20260902133025 | 27 | 331 | 0.0 | 4.8 | 0.00 | 0.00 | 0.00 | 81 | 1018.3 |
| 20260902132512 | 27 | 39 | 0.0 | 4.8 | 0.00 | 0.00 | 0.00 | 81 | 1018.3 |
| 20260902132011 | 27 | 44 | 0.0 | 3.2 | 0.00 | 0.00 | 0.00 | 82 | 1018.2 |
| 20260902131530 | 27 | 34 | 0.0 | 3.2 | 0.00 | 0.00 | 0.00 | 82 | 1018.3 |
| 20260902131004 | 27 | 350 | 1.6 | 4.8 | 0.00 | 0.00 | 0.00 | 82 | 1018.2 |
| 20260902130513 | 26 | 352 | 0.0 | 4.8 | 0.00 | 0.00 | 0.00 | 83 | 1018.2 |
| 20260902130027 | 26 | 350 | 0.0 | 1.6 | 0.00 | 0.00 | 0.00 | 83 | 1018.2 |
| 20260902125514 | 26 | 350 | 0.0 | 1.6 | 0.00 | 0.00 | 0.00 | 84 | 1018.2 |
| 20260902125017 | 26 | 350 | 0.0 | 3.2 | 0.00 | 0.00 | 0.00 | 85 | 1018.3 |
| 20260902124527 | 26 | 350 | 0.0 | 3.2 | 0.00 | 0.00 | 0.00 | 86 | 1018.2 |
| 20260902124007 | 25 | 350 | 0.0 | 1.6 | 0.00 | 0.00 | 0.00 | 89 | 1018.1 |
| 20260902123511 | 25 | 350 | 0.0 | 3.2 | 0.00 | 0.00 | 0.00 | 89 | 1018.2 |
| 20260902123028 | 25 | 350 | 0.0 | 3.2 | 0.00 | 0.00 | 0.00 | 90 | 1018.2 |
| 20260902122511 | 25 | 350 | 0.0 | 0.0 | 0.00 | 0.00 | 0.00 | 92 | 1018.2 |
| 20260902122012 | 24 | 350 | 0.0 | 0.0 | 0.00 | 0.00 | 0.00 | 93 | 1018.3 |
| 20260902121528 | 24 | 350 | 0.0 | 0.0 | 0.00 | 0.00 | 0.00 | 94 | 1018.2 |
| 20260902121006 | 23 | 350 | 0.0 | 0.0 | 0.00 | 0.00 | 0.00 | 94 | 1018.2 |
| 20260902120512 | 23 | 350 | 0.0 | 0.0 | 0.00 | 0.00 | 0.00 | 95 | 1018.1 |
| 20260902120029 | 23 | 350 | 0.0 | 0.0 | 0.00 | 0.00 | 0.00 | 95 | 1018.1 |
| 20260902115512 | 23 | 350 | 0.0 | 0.0 | 0.00 | 0.00 | 0.00 | 95 | 1018.1 |
| 20260902115014 | 23 | 350 | 0.0 | 0.0 | 0.00 | 0.00 | 0.00 | 95 | 1018.1 |
| 20260902114538 | 23 | 350 | 0.0 | 0.0 | 0.00 | 0.00 | 0.00 | 95 | 1018.0 |
| 20260902114011 | 23 | 350 | 0.0 | 0.0 | 0.00 | 0.00 | 0.00 | 95 | 1018.0 |
| 20260902113515 | 23 | 350 | 0.0 | 0.0 | 0.00 | 0.00 | 0.00 | 95 | 1018.1 |
| 20260902113026 | 23 | 350 | 0.0 | 0.0 | 0.00 | 0.00 | 0.00 | 95 | 1018.1 |
| 20260902112511 | 23 | 350 | 0.0 | 0.0 | 0.00 | 0.00 | 0.00 | 95 | 1018.0 |
| 20260902112015 | 23 | 350 | 0.0 | 0.0 | 0.00 | 0.00 | 0.00 | 95 | 1018.1 |
| 20260902111529 | 23 | 350 | 0.0 | 0.0 | 0.00 | 0.00 | 0.00 | 95 | 1018.1 |
| 20260902111011 | 23 | 351 | 0.0 | 0.0 | 0.00 | 0.00 | 0.00 | 95 | 1018.1 |
| 20260902110515 | 23 | 350 | 0.0 | 1.6 | 0.00 | 0.00 | 0.00 | 95 | 1018.1 |
| 20260902110032 | 23 | 350 | 0.0 | 1.6 | 0.00 | 0.00 | 0.00 | 95 | 1018.1 |
| 20260902105512 | 23 | 350 | 0.0 | 0.0 | 0.00 | 0.00 | 0.00 | 94 | 1018.1 |
| 20260902105014 | 23 | 350 | 0.0 | 0.0 | 0.00 | 0.00 | 0.00 | 94 | 1018.0 |
| 20260902104526 | 23 | 350 | 0.0 | 0.0 | 0.00 | 0.00 | 0.00 | 94 | 1017.9 |
| 20260902104012 | 23 | 350 | 0.0 | 0.0 | 0.00 | 0.00 | 0.00 | 94 | 1017.9 |
| 20260902103516 | 23 | 350 | 0.0 | 0.0 | 0.00 | 0.00 | 0.00 | 94 | 1017.8 |
| 20260902103012 | 23 | 350 | 0.0 | 0.0 | 0.00 | 0.00 | 0.00 | 94 | 1017.9 |
| 20260902102511 | 23 | 350 | 0.0 | 0.0 | 0.00 | 0.00 | 0.00 | 94 | 1017.8 |
| 20260902102017 | 23 | 350 | 0.0 | 0.0 | 0.00 | 0.00 | 0.00 | 94 | 1017.8 |
| 20260902101511 | 23 | 350 | 0.0 | 0.0 | 0.00 | 0.00 | 0.00 | 94 | 1017.8 |
| 20260902101016 | 23 | 350 | 0.0 | 0.0 | 0.00 | 0.00 | 0.00 | 94 | 1017.7 |
| 20260902100514 | 23 | 350 | 0.0 | 0.0 | 0.00 | 0.00 | 0.00 | 94 | 1017.6 |
| 20260902100012 | 23 | 350 | 0.0 | 1.6 | 0.00 | 0.00 | 0.00 | 94 | 1017.6 |
| 20260902095514 | 23 | 350 | 0.0 | 1.6 | 0.00 | 0.00 | 0.00 | 94 | 1017.6 |
| 20260902095016 | 23 | 350 | 0.0 | 0.0 | 0.00 | 0.00 | 0.00 | 95 | 1017.6 |
| 20260902094515 | 23 | 350 | 0.0 | 0.0 | 0.00 | 0.00 | 0.00 | 95 | 1017.6 |
| 20260902094012 | 23 | 350 | 0.0 | 0.0 | 0.00 | 0.00 | 0.00 | 95 | 1017.5 |
| 20260902093515 | 23 | 350 | 0.0 | 0.0 | 0.00 | 0.00 | 0.00 | 95 | 1017.5 |
| 20260902093012 | 23 | 350 | 0.0 | 0.0 | 0.00 | 0.00 | 0.00 | 95 | 1017.5 |
| 20260902092515 | 23 | 350 | 0.0 | 0.0 | 0.00 | 0.00 | 0.00 | 95 | 1017.5 |
| 20260902092022 | 23 | 350 | 0.0 | 0.0 | 0.00 | 0.00 | 0.00 | 95 | 1017.5 |
| 20260902091515 | 23 | 351 | 0.0 | 0.0 | 0.00 | 0.00 | 0.00 | 95 | 1017.5 |
| 20260902091015 | 23 | 350 | 0.0 | 0.0 | 0.00 | 0.00 | 0.00 | 95 | 1017.5 |
| 20260902090516 | 23 | 350 | 0.0 | 0.0 | 0.00 | 0.00 | 0.00 | 95 | 1017.4 |
| 20260902090016 | 23 | 350 | 0.0 | 0.0 | 0.00 | 0.00 | 0.00 | 95 | 1017.4 |
| 20260902085515 | 23 | 350 | 0.0 | 0.0 | 0.00 | 0.00 | 0.00 | 95 | 1017.3 |
| 20260902085018 | 23 | 351 | 0.0 | 0.0 | 0.00 | 0.00 | 0.00 | 94 | 1017.4 |
| 20260902084516 | 23 | 350 | 0.0 | 0.0 | 0.00 | 0.00 | 0.00 | 94 | 1017.4 |
| 20260902084021 | 23 | 350 | 0.0 | 0.0 | 0.00 | 0.00 | 0.00 | 94 | 1017.3 |
| 20260902083518 | 23 | 350 | 0.0 | 0.0 | 0.00 | 0.00 | 0.00 | 94 | 1017.3 |
| 20260902083017 | 23 | 350 | 0.0 | 0.0 | 0.00 | 0.00 | 0.00 | 94 | 1017.3 |
| 20260902082516 | 23 | 350 | 0.0 | 0.0 | 0.00 | 0.00 | 0.00 | 94 | 1017.3 |
| 20260902082021 | 23 | 350 | 0.0 | 0.0 | 0.00 | 0.00 | 0.00 | 94 | 1017.2 |
| 20260902081518 | 23 | 350 | 0.0 | 0.0 | 0.00 | 0.00 | 0.00 | 94 | 1017.2 |
| 20260902081020 | 23 | 351 | 0.0 | 0.0 | 0.00 | 0.00 | 0.00 | 94 | 1017.2 |
| 20260902080519 | 23 | 350 | 0.0 | 0.0 | 0.00 | 0.00 | 0.00 | 94 | 1017.2 |
| 20260902080022 | 23 | 350 | 0.0 | 0.0 | 0.00 | 0.00 | 0.00 | 94 | 1017.2 |
| 20260902075515 | 23 | 351 | 0.0 | 0.0 | 0.00 | 0.00 | 0.00 | 94 | 1017.2 |
| 20260902075019 | 23 | 350 | 0.0 | 0.0 | 0.00 | 0.00 | 0.00 | 94 | 1017.1 |
| 20260902074520 | 23 | 350 | 0.0 | 0.0 | 0.00 | 0.00 | 0.00 | 94 | 1017.1 |
| 20260902074017 | 23 | 350 | 0.0 | 0.0 | 0.00 | 0.00 | 0.00 | 94 | 1017.2 |
| 20260902073517 | 23 | 350 | 0.0 | 0.0 | 0.00 | 0.00 | 0.00 | 94 | 1017.2 |
| 20260902073023 | 23 | 350 | 0.0 | 0.0 | 0.00 | 0.00 | 0.00 | 93 | 1017.2 |
| 20260902072519 | 23 | 350 | 0.0 | 0.0 | 0.00 | 0.00 | 0.00 | 93 | 1017.2 |
| 20260902072019 | 23 | 350 | 0.0 | 0.0 | 0.00 | 0.00 | 0.00 | 93 | 1017.2 |
| 20260902071537 | 23 | 350 | 0.0 | 0.0 | 0.00 | 0.00 | 0.00 | 93 | 1017.1 |
| 20260902071019 | 23 | 350 | 0.0 | 0.0 | 0.00 | 0.00 | 0.00 | 93 | 1017.2 |
| 20260902070524 | 23 | 350 | 0.0 | 0.0 | 0.00 | 0.00 | 0.00 | 93 | 1017.2 |
| 20260902070026 | 23 | 350 | 0.0 | 0.0 | 0.00 | 0.00 | 0.00 | 93 | 1017.3 |
| 20260902065518 | 23 | 350 | 0.0 | 0.0 | 0.00 | 0.00 | 0.00 | 93 | 1017.2 |
| 20260902065019 | 23 | 350 | 0.0 | 0.0 | 0.00 | 0.00 | 0.00 | 93 | 1017.3 |
| 20260902064510 | 23 | 350 | 0.0 | 0.0 | 0.00 | 0.00 | 0.00 | 93 | 1017.2 |
| 20260902064006 | 23 | 350 | 0.0 | 0.0 | 0.00 | 0.00 | 0.00 | 93 | 1017.1 |
| 20260902063509 | 23 | 350 | 0.0 | 0.0 | 0.00 | 0.00 | 0.00 | 93 | 1017.1 |
| 20260902063004 | 23 | 350 | 0.0 | 0.0 | 0.00 | 0.00 | 0.00 | 93 | 1017.1 |
| 20260902062508 | 23 | 350 | 0.0 | 0.0 | 0.00 | 0.00 | 0.00 | 93 | 1017.1 |
| 20260902062013 | 23 | 350 | 0.0 | 0.0 | 0.00 | 0.00 | 0.00 | 92 | 1017.2 |
| 20260902061505 | 23 | 350 | 0.0 | 0.0 | 0.00 | 0.00 | 0.00 | 92 | 1017.1 |
| 20260902061009 | 23 | 350 | 0.0 | 0.0 | 0.00 | 0.00 | 0.00 | 92 | 1017.0 |
| 20260902060511 | 23 | 350 | 0.0 | 0.0 | 0.00 | 0.00 | 0.00 | 92 | 1016.8 |
| 20260902060004 | 23 | 350 | 0.0 | 0.0 | 0.00 | 0.00 | 0.00 | 92 | 1016.9 |
| 20260902055508 | 23 | 350 | 0.0 | 0.0 | 0.00 | 0.00 | 0.00 | 92 | 1016.9 |
| 20260902055014 | 23 | 350 | 0.0 | 0.0 | 0.00 | 0.00 | 0.00 | 91 | 1017.0 |
| 20260902054503 | 23 | 351 | 0.0 | 0.0 | 0.00 | 0.00 | 0.00 | 91 | 1017.1 |
| 20260902054005 | 23 | 350 | 0.0 | 0.0 | 0.00 | 0.00 | 0.00 | 91 | 1017.0 |
| 20260902053501 | 23 | 350 | 0.0 | 0.0 | 0.00 | 0.00 | 0.00 | 91 | 1017.0 |
| 20260902053006 | 23 | 351 | 0.0 | 0.0 | 0.00 | 0.00 | 0.00 | 91 | 1017.0 |
| 20260902052509 | 24 | 350 | 0.0 | 0.0 | 0.00 | 0.00 | 0.00 | 91 | 1017.1 |
| 20260902052002 | 24 | 350 | 0.0 | 0.0 | 0.00 | 0.00 | 0.00 | 91 | 1017.2 |
| 20260902051508 | 24 | 350 | 0.0 | 0.0 | 0.00 | 0.00 | 0.00 | 91 | 1017.2 |
| 20260902051009 | 24 | 350 | 0.0 | 0.0 | 0.00 | 0.00 | 0.00 | 91 | 1017.2 |
| 20260902050504 | 24 | 350 | 0.0 | 0.0 | 0.00 | 0.00 | 0.00 | 91 | 1017.2 |
| 20260902050008 | 24 | 350 | 0.0 | 0.0 | 0.00 | 0.00 | 0.00 | 91 | 1017.1 |
| 20260902045510 | 24 | 351 | 0.0 | 0.0 | 0.00 | 0.00 | 0.00 | 91 | 1017.1 |
| 20260902045002 | 25 | 350 | 0.0 | 0.0 | 0.00 | 0.00 | 0.00 | 91 | 1016.9 |
| 20260902044513 | 25 | 350 | 0.0 | 0.0 | 0.00 | 0.00 | 0.00 | 91 | 1016.9 |
| 20260902044010 | 25 | 350 | 0.0 | 0.0 | 0.00 | 0.00 | 0.00 | 91 | 1016.8 |
| 20260902043503 | 25 | 350 | 0.0 | 0.0 | 0.00 | 0.00 | 0.00 | 91 | 1016.7 |
| 20260902043008 | 25 | 350 | 0.0 | 0.0 | 0.00 | 0.00 | 0.00 | 91 | 1016.8 |
| 20260902042509 | 25 | 350 | 0.0 | 0.0 | 0.00 | 0.00 | 0.00 | 91 | 1016.7 |
| 20260902042002 | 25 | 350 | 0.0 | 0.0 | 0.00 | 0.00 | 0.00 | 91 | 1016.7 |
| 20260902041507 | 25 | 350 | 0.0 | 0.0 | 0.00 | 0.00 | 0.00 | 91 | 1016.6 |
| 20260902041014 | 25 | 350 | 0.0 | 0.0 | 0.00 | 0.00 | 0.00 | 91 | 1016.6 |
| 20260902040504 | 25 | 350 | 0.0 | 0.0 | 0.00 | 0.00 | 0.00 | 91 | 1016.6 |
| 20260902040008 | 25 | 350 | 0.0 | 0.0 | 0.00 | 0.00 | 0.00 | 91 | 1016.6 |
| 20260902035512 | 25 | 350 | 0.0 | 0.0 | 0.00 | 0.00 | 0.00 | 90 | 1016.5 |
| 20260902035002 | 25 | 350 | 0.0 | 0.0 | 0.00 | 0.00 | 0.00 | 90 | 1016.4 |
| 20260902034511 | 25 | 350 | 0.0 | 0.0 | 0.00 | 0.00 | 0.00 | 90 | 1016.4 |
| 20260902034011 | 25 | 350 | 0.0 | 0.0 | 0.00 | 0.00 | 0.00 | 90 | 1016.3 |
| 20260902033503 | 25 | 350 | 0.0 | 0.0 | 0.00 | 0.00 | 0.00 | 90 | 1016.3 |
| 20260902033010 | 25 | 350 | 0.0 | 0.0 | 0.00 | 0.00 | 0.00 | 90 | 1016.2 |
| 20260902032516 | 25 | 350 | 0.0 | 0.0 | 0.00 | 0.00 | 0.00 | 90 | 1016.2 |
| 20260902032002 | 25 | 350 | 0.0 | 0.0 | 0.00 | 0.00 | 0.00 | 90 | 1016.3 |
| 20260902031516 | 25 | 350 | 0.0 | 0.0 | 0.00 | 0.00 | 0.00 | 90 | 1016.3 |
| 20260902031014 | 25 | 350 | 0.0 | 0.0 | 0.00 | 0.00 | 0.00 | 89 | 1016.2 |
| 20260902030502 | 25 | 350 | 0.0 | 0.0 | 0.00 | 0.00 | 0.00 | 89 | 1016.3 |
| 20260902030014 | 25 | 350 | 0.0 | 0.0 | 0.00 | 0.00 | 0.00 | 89 | 1016.3 |
| 20260902025514 | 25 | 350 | 0.0 | 0.0 | 0.00 | 0.00 | 0.00 | 89 | 1016.3 |
| 20260902025003 | 25 | 350 | 0.0 | 0.0 | 0.00 | 0.00 | 0.00 | 88 | 1016.2 |
| 20260902024511 | 25 | 350 | 0.0 | 0.0 | 0.00 | 0.00 | 0.00 | 88 | 1016.2 |
| 20260902024017 | 25 | 350 | 0.0 | 0.0 | 0.00 | 0.00 | 0.00 | 87 | 1016.2 |
| 20260902023505 | 25 | 350 | 0.0 | 0.0 | 0.00 | 0.00 | 0.00 | 87 | 1016.2 |
| 20260902023015 | 25 | 350 | 0.0 | 0.0 | 0.00 | 0.00 | 0.00 | 87 | 1016.2 |
| 20260902022513 | 25 | 350 | 0.0 | 0.0 | 0.00 | 0.00 | 0.00 | 87 | 1016.2 |
| 20260902022005 | 26 | 350 | 0.0 | 0.0 | 0.00 | 0.00 | 0.00 | 87 | 1016.3 |
| 20260902021520 | 26 | 350 | 0.0 | 0.0 | 0.00 | 0.00 | 0.00 | 87 | 1016.3 |
| 20260902021012 | 26 | 350 | 0.0 | 0.0 | 0.00 | 0.00 | 0.00 | 87 | 1016.3 |
| 20260902020503 | 26 | 350 | 0.0 | 0.0 | 0.00 | 0.00 | 0.00 | 86 | 1016.3 |
| 20260902020016 | 26 | 350 | 0.0 | 0.0 | 0.00 | 0.00 | 0.00 | 86 | 1016.2 |
| 20260902015513 | 26 | 350 | 0.0 | 0.0 | 0.00 | 0.00 | 0.00 | 85 | 1016.1 |
| 20260902015006 | 26 | 350 | 0.0 | 0.0 | 0.00 | 0.00 | 0.00 | 85 | 1016.1 |
| 20260902014535 | 26 | 350 | 0.0 | 0.0 | 0.00 | 0.00 | 0.00 | 85 | 1015.8 |
| 20260902014013 | 26 | 350 | 0.0 | 0.0 | 0.00 | 0.00 | 0.00 | 85 | 1015.8 |
| 20260902013506 | 26 | 350 | 0.0 | 0.0 | 0.00 | 0.00 | 0.00 | 83 | 1015.7 |
| 20260902013017 | 26 | 350 | 0.0 | 0.0 | 0.00 | 0.00 | 0.00 | 83 | 1015.7 |
| 20260902012519 | 26 | 350 | 0.0 | 0.0 | 0.00 | 0.00 | 0.00 | 82 | 1015.6 |
| 20260902012005 | 26 | 350 | 0.0 | 0.0 | 0.00 | 0.00 | 0.00 | 81 | 1015.5 |
| 20260902011521 | 26 | 350 | 0.0 | 0.0 | 0.00 | 0.00 | 0.00 | 81 | 1015.5 |
| 20260902011014 | 26 | 350 | 0.0 | 0.0 | 0.00 | 0.00 | 0.00 | 80 | 1015.5 |
| 20260902010507 | 26 | 350 | 0.0 | 0.0 | 0.00 | 0.00 | 0.00 | 80 | 1015.5 |
| 20260902010027 | 27 | 350 | 0.0 | 0.0 | 0.00 | 0.00 | 0.00 | 80 | 1015.5 |
| 20260902005514 | 27 | 350 | 0.0 | 0.0 | 0.00 | 0.00 | 0.00 | 79 | 1015.5 |
| 20260902005014 | 27 | 350 | 0.0 | 0.0 | 0.00 | 0.00 | 0.00 | 79 | 1015.5 |
| 20260902004534 | 27 | 350 | 0.0 | 0.0 | 0.00 | 0.00 | 0.00 | 79 | 1015.5 |
| 20260902004019 | 27 | 350 | 0.0 | 0.0 | 0.00 | 0.00 | 0.00 | 79 | 1015.4 |
| 20260902003508 | 27 | 350 | 0.0 | 0.0 | 0.00 | 0.00 | 0.00 | 78 | 1015.3 |
| 20260902003026 | 27 | 350 | 0.0 | 0.0 | 0.00 | 0.00 | 0.00 | 78 | 1015.2 |
| 20260902002514 | 27 | 350 | 0.0 | 0.0 | 0.00 | 0.00 | 0.00 | 77 | 1015.2 |
| 20260902002008 | 27 | 350 | 0.0 | 0.0 | 0.00 | 0.00 | 0.00 | 77 | 1015.2 |
| 20260902001524 | 28 | 350 | 0.0 | 0.0 | 0.00 | 0.00 | 0.00 | 76 | 1015.2 |
| 20260902001018 | 28 | 350 | 0.0 | 0.0 | 0.00 | 0.00 | 0.00 | 76 | 1015.2 |
| 20260902000509 | 28 | 350 | 0.0 | 0.0 | 0.00 | 0.00 | 0.00 | 75 | 1015.2 |
| 20260902000036 | 28 | 350 | 0.0 | 0.0 | 0.00 | 0.00 | 0.00 | 75 | 1015.2 |
| 20260901235510 | 28 | 350 | 0.0 | 1.6 | 0.00 | 0.00 | 0.00 | 75 | 1015.2 |
| 20260901235011 | 28 | 350 | 0.0 | 1.6 | 0.00 | 0.00 | 0.00 | 74 | 1015.2 |
| 20260901234543 | 29 | 350 | 0.0 | 0.0 | 0.00 | 0.00 | 0.00 | 74 | 1015.3 |
| 20260901234003 | 29 | 350 | 0.0 | 0.0 | 0.00 | 0.00 | 0.00 | 73 | 1015.2 |
| 20260901233512 | 29 | 350 | 0.0 | 0.0 | 0.00 | 0.00 | 0.00 | 73 | 1015.1 |
| 20260901233029 | 30 | 350 | 0.0 | 0.0 | 0.00 | 0.00 | 0.00 | 72 | 1015.2 |
| 20260901232507 | 30 | 350 | 0.0 | 0.0 | 0.00 | 0.00 | 0.00 | 71 | 1015.2 |
| 20260901232013 | 30 | 350 | 0.0 | 0.0 | 0.00 | 0.00 | 0.00 | 70 | 1015.3 |
| 20260901231532 | 30 | 350 | 0.0 | 0.0 | 0.00 | 0.00 | 0.00 | 71 | 1015.2 |
| 20260901231006 | 31 | 350 | 0.0 | 0.0 | 0.00 | 0.00 | 0.00 | 70 | 1015.3 |
| 20260901230512 | 31 | 350 | 0.0 | 0.0 | 0.00 | 0.00 | 0.00 | 69 | 1015.3 |
| 20260901230034 | 31 | 350 | 0.0 | 1.6 | 0.00 | 0.00 | 0.00 | 68 | 1015.3 |
| 20260901225508 | 31 | 350 | 0.0 | 1.6 | 0.00 | 0.00 | 0.00 | 67 | 1015.3 |
| 20260901225012 | 32 | 350 | 0.0 | 0.0 | 0.00 | 0.00 | 0.00 | 67 | 1015.4 |
| 20260901224532 | 32 | 350 | 0.0 | 0.0 | 0.00 | 0.00 | 0.00 | 66 | 1015.5 |
| 20260901224008 | 32 | 350 | 0.0 | 0.0 | 0.00 | 0.00 | 0.00 | 63 | 1015.5 |
| 20260901223513 | 32 | 350 | 0.0 | 0.0 | 0.00 | 0.00 | 0.00 | 63 | 1015.4 |
| 20260901223029 | 32 | 350 | 0.0 | 0.0 | 0.00 | 0.00 | 0.00 | 58 | 1015.5 |
| 20260901222507 | 32 | 350 | 0.0 | 0.0 | 0.00 | 0.00 | 0.00 | 57 | 1015.5 |
| 20260901222012 | 33 | 350 | 0.0 | 3.2 | 0.00 | 0.00 | 0.00 | 56 | 1015.6 |
| 20260901221557 | 33 | 350 | 0.0 | 3.2 | 0.00 | 0.00 | 0.00 | 55 | 1015.6 |
| 20260901221009 | 33 | 350 | 0.0 | 4.8 | 0.00 | 0.00 | 0.00 | 56 | 1015.6 |
| 20260901220513 | 33 | 326 | 0.0 | 4.8 | 0.00 | 0.00 | 0.00 | 55 | 1015.6 |
| 20260901220032 | 33 | 325 | 0.0 | 3.2 | 0.00 | 0.00 | 0.00 | 54 | 1015.6 |
| 20260901215512 | 33 | 325 | 0.0 | 3.2 | 0.00 | 0.00 | 0.00 | 56 | 1015.6 |
| 20260901215019 | 33 | 325 | 0.0 | 3.2 | 0.00 | 0.00 | 0.00 | 53 | 1015.6 |
| 20260901214508 | 33 | 324 | 0.0 | 3.2 | 0.00 | 0.00 | 0.00 | 54 | 1015.7 |
| 20260901214011 | 33 | 142 | 0.0 | 3.2 | 0.00 | 0.00 | 0.00 | 54 | 1015.6 |
| 20260901213502 | 33 | 142 | 0.0 | 3.2 | 0.00 | 0.00 | 0.00 | 53 | 1015.7 |
| 20260901213035 | 33 | 142 | 0.0 | 3.2 | 0.00 | 0.00 | 0.00 | 53 | 1015.7 |
| 20260901212510 | 33 | 344 | 0.0 | 6.4 | 0.00 | 0.00 | 0.00 | 53 | 1015.7 |
| 20260901212019 | 33 | 345 | 1.6 | 6.4 | 0.00 | 0.00 | 0.00 | 52 | 1015.7 |
| 20260901211536 | 33 | 343 | 0.0 | 6.4 | 0.00 | 0.00 | 0.00 | 53 | 1015.8 |
| 20260901211012 | 33 | 352 | 0.0 | 6.4 | 0.00 | 0.00 | 0.00 | 52 | 1015.8 |
| 20260901210504 | 33 | 5 | 1.6 | 6.4 | 0.00 | 0.00 | 0.00 | 53 | 1015.8 |
| 20260901210016 | 33 | 46 | 1.6 | 4.8 | 0.00 | 0.00 | 0.00 | 54 | 1015.8 |
| 20260901205513 | 33 | 333 | 0.0 | 6.4 | 0.00 | 0.00 | 0.00 | 52 | 1015.9 |
| 20260901205002 | 33 | 343 | 0.0 | 6.4 | 0.00 | 0.00 | 0.00 | 52 | 1015.9 |